Location: Roanoke
(37.2710°N, 79.9420°W)
Time: 19:43:21
(UTC-05:00)

Vanguard 1 Rocket - Visible Passes

Search period start: 14 November 2019 00:00
Search period end: 24 November 2019 00:00
Orbit: 651 x 4225 km, 34.3° (Epoch: 14 November)

Date Brightness Start Highest point End Pass type
(mag) Time Alt. Az. Time Alt. Az. Time Alt. Az.
14 Nov 7.5 04:53:18 40° SSW 04:54:17 46° SSE 05:00:00 10° E visible
15 Nov 9.3 03:46:16 17° ESE 03:46:16 17° ESE 03:47:51 10° E visible
15 Nov 7.6 06:03:34 11° WSW 06:08:03 67° S 06:15:33 10° E visible
16 Nov 7.2 04:56:32 49° SSW 04:57:15 54° SSE 05:02:57 10° E visible
17 Nov 9.3 03:49:27 18° ESE 03:49:27 18° ESE 03:51:03 10° E visible
17 Nov 7.5 06:06:45 12° W 06:11:05 66° S 06:18:22 10° E visible
18 Nov 7.0 04:59:40 55° SSW 05:00:16 60° S 05:05:55 10° E visible
19 Nov 9.2 03:52:35 19° E 03:52:35 19° E 03:54:09 10° E visible
19 Nov 7.5 06:09:53 12° W 06:14:08 62° S 06:21:09 10° ESE visible
20 Nov 6.9 05:02:47 58° SW 05:03:20 63° S 05:08:51 10° E visible
21 Nov 9.2 03:55:41 19° E 03:55:41 19° E 03:57:13 10° E visible
21 Nov 7.6 06:12:59 12° W 06:17:11 54° S 06:23:52 10° ESE visible
22 Nov 6.9 05:05:52 56° SW 05:06:24 61° S 05:11:46 10° ESE visible
23 Nov 9.2 03:58:46 19° E 03:58:46 19° E 04:00:15 10° E visible
23 Nov 7.9 06:16:03 11° W 06:20:14 44° SSW 06:26:29 10° ESE visible
